sat.trackr.live / text

‹ back to catalog

STARLINK-3766

NORAD 52296 · 2022-041AM

PAYLOAD ACTIVE UNKNOWN

§ Identity

Operator
Country
US
Launch date
2022-04-21
Launch site
AFETR
Launch vehicle
Mass (kg)
RCS (m²)

Purposes: comms

External: N2YO · Heavens-Above · Gunter

§ Orbital elements

Epoch: 2026-05-25T04:13:25.162752Z

Period
95.44 min
Inclination
53.2131°
Eccentricity
0.0001547
Mean motion
15.08841305 rev/d
Perigee alt
538.7 km
Apogee alt
540.8 km
Semi-major
6,917.9 km
B*
1.1907e-4
RAAN
115.7641°
Arg perigee
65.4566°
Mean anomaly
294.6587°
Rev number
22,605

§ Raw data

STARLINK-37661 52296U 22041AM  26145.17598568  .00001608  00000+0  11907-3 0  99952 52296  53.2131 115.7641 0001547  65.4566 294.6587 15.08841305226056

JSON: /api/v1/satellites/52296 · /tle

For live sub-satellite position, see the globe view (requires WebGL).

§ Visibility from observer

Set your observer location to see the next 7 days of passes ≥ 10°. The values pass through the URL so the page stays shareable.

No JS? Fill the form by hand. The geolocation button needs JavaScript.